Tracking 28052 objects as of 22-Sep-2023
HD Live streaming from Space Station
objects crossing your sky now

STARLINK-4570

Track STARLINK-4570 now!
10-day predictions


NORAD ID: 53690
Int'l Code: 2022-105AU
Perigee: 571.4 km
Apogee: 573.9 km
Inclination: 97.7 °
Period: 96.0 minutes
Semi major axis: 6943 km
RCS: Unknown
Launch date: August 31, 2022
Source: United States (US)
Launch site: AIR FORCE WESTERN TEST RANGE (AFWTR)
Your satellite tracking list
Your tracking list is empty




NASA's NSSDC Master Catalog

Two Line Element Set (TLE):
1 53690U 22105AU  23265.18965940  .00002729  00000-0  22157-3 0  9993
2 53690  97.6553 144.8372 0001774  92.3470 267.7957 15.00453769 58560
Source of the keplerian elements: AFSPC